Starlink 30806

operational
NORAD ID: 58180 Int'l Des: 2023-167 Owner: SPXS Country: US Constellation: starlink
LEOCIRCULAR

About Starlink 30806

Description loading...

Live Position

Loading 3D Globe...

Upcoming Passes

Altitude History

Altitude vs Time

uPlot chart will show altitude changes over time

Two-Line Element Set

1 58180U 23167F 25303.25644135 .00000909 00000-0 82318-4 0 9998
2 58180 43.0040 134.7533 0001108 261.2555 98.8162 15.02539680111339
Epoch: Oct 30, 2025 • Age: 11 hours

Current Status

Altitude 566.6 km
Velocity 7.58 km/s
Sub-Earth Point -30.06°S, 158.18°E
Launch Date Oct 30, 2023
Age 1.9 years
Type internet

Technical Details

Classification Payload
Mass 730.00 kg
Dry Mass 700.00 kg
Total Mass 730.00 kg
Length 0.30 m
Diameter 4.10 m
Span 29.00 m
Shape Box + pan
Manufacturer SPXS
Bus Type Starlink V2M
Phase Status In Orbit
Owner/State SPXS/US

Large Constellations

Loading constellations...